Regional Weather Roundup
Issued by NWS

Home | Current Version | Previous Version | Text Only | Print | Product List | Glossary Off
Versions: 1 2 3 4 5 6 7 8 9 10 11 12 13 14 15 16 17 18 19 20 21 22 23 24 25 26 27 28 29 30 31 32 33 34 35 36 37 38 39 40 41 42 43 44 45 46 47 48 49 50

000
ASUS45 KPSR 262100
RWRAZ

PRELIMINARY ARIZONA REGIONAL HOURLY WEATHER ROUNDUP
NATIONAL WEATHER SERVICE PHOENIX AZ
200 PM MST MON JAN 26 2015

NOTE: FAIR INDICATES FEW OR NO CLOUDS BELOW 12,000 FEET WITH NO
SIGNIFICANT WEATHER AND/OR OBSTRUCTIONS TO VISIBILITY.

AZZ001>003-036-262200-
NORTHWEST ARIZONA

CITY           SKY/WX    TMP DP  RH WIND       PRES   REMARKS
KINGMAN        PTSUNNY   65  22  19 SW13      30.14F
$$

AZZ004>008-015-016-018-262200-
NORTH CENTRAL ARIZONA

CITY           SKY/WX    TMP DP  RH WIND       PRES   REMARKS
GRAND CANYON   PTSUNNY   54  24  31 E10       30.27F
PRESCOTT       CLOUDY    61  21  21 SE10      30.20F
FLAGSTAFF      NOT AVBL
PAYSON         CLOUDY    57  25  28 VRB5      30.26F
PAGE           MOSUNNY   52  26  36 NE6       30.28F
$$

AZZ009>014-017-262200-
NORTHEAST ARIZONA

CITY           SKY/WX    TMP DP  RH WIND       PRES   REMARKS
WINSLOW        NOT AVBL
SAINT JOHNS    PTSUNNY   56  24  29 CALM      30.25F
WINDOW ROCK    MOSUNNY   58  23  26 E6        30.31F
$$

AZZ023-262200-
GREATER PHOENIX AREA

CITY           SKY/WX    TMP DP  RH WIND       PRES   REMARKS
PHOENIX        CLOUDY    70  25  18 NW3       30.09F
GLENDALE       CLOUDY    66  30  26 SW6       30.13F
DEER VALLEY    CLOUDY    68  29  23 SW6       30.11F
SCOTTSDALE     CLOUDY    70  25  18 SW3       30.12F
MESA-FALCON    CLOUDY    68  25  19 SW6       30.11F
MESA-GATEWAY   PTSUNNY   70  28  21 S6        30.12F
CHANDLER       CLOUDY    64  34  32 VRB3      30.11F
$$

AZZ027-028-262200-
SOUTHWEST MARICOPA COUNTY AND PINAL COUNTY

CITY           SKY/WX    TMP DP  RH WIND       PRES   REMARKS
CASA GRANDE    CLOUDY    61  28  29 CALM      30.11F
GILA BEND      LGT RAIN  57  44  63 N3        30.11F
$$

AZZ503-504-507>509-262200-
SOUTHEAST ARIZONA

CITY           SKY/WX    TMP DP  RH WIND       PRES   REMARKS
TUCSON         CLOUDY    66  36  32 E8        30.14F
DAVIS-MONTHAN  CLOUDY    63  40  43 SE8       30.12F
RYAN FIELD       N/A     63  43  48 SE7       30.14F
NOGALES        CLOUDY    65  39  38 SW6       30.14F
SIERRA VISTA   PTSUNNY   61  27  27 E8        30.20F
SAFFORD        CLOUDY    62  24  23 S12       30.20F
$$

AZZ020-021-025-026-031-262200-
SOUTHWEST ARIZONA

CITY           SKY/WX    TMP DP  RH WIND       PRES   REMARKS
YUMA           CLOUDY    61  54  77 NE8       30.07F
$$

CAZ031-033-041-043-047-048-061-262200-
SOUTHERN CALIFORNIA

CITY           SKY/WX    TMP DP  RH WIND       PRES   REMARKS
DOWNTOWN L.A.  PTSUNNY   77  34  21 VRB5      29.97F
L.A. AIRPORT   PTSUNNY   74  34  23 SE9       29.97F
SAN DIEGO      CLOUDY    64  56  75 S21       30.04S
BURBANK        PTSUNNY   75  33  21 SE10G21   29.98F
ONTARIO        CLOUDY    77  36  22 SE12G20   29.99F
RIVERSIDE      CLOUDY    74  37  26 E16G23    30.00F
PALM SPRINGS   CLOUDY    65  50  58 NW13      30.11F
EL CENTRO NAS  LGT RAIN  62  54  74 S5        30.08F
IMPERIAL       CLOUDY    64  52  64 CALM      30.06F
BLYTHE         LGT RAIN  59  49  69 SW6       30.11F
$$

NVZ020-UTZ003-262200-
SOUTHERN NEVADA-UTAH

CITY           SKY/WX    TMP DP  RH WIND       PRES   REMARKS
LAS VEGAS      NOT AVBL
SALT LAKE CITY SUNNY     49  34  56 NW6       30.26F
$$

NMZ009-TXZ055-262200-
NEW MEXICO-WEST TEXAS

CITY           SKY/WX    TMP DP  RH WIND       PRES   REMARKS
ALBUQUERQUE    PTSUNNY   52  25  35 S5        30.33F
EL PASO        PTSUNNY   58  26  29 NW5       30.26F
$$


........................KEY........................
SKY/WX - SKY CONDITION/WEATHER
TMP    - TEMPERATURE IN FAHRENHEIT
DP     - DEW POINT IN FAHRENHEIT
RH     - RELATIVE HUMIDITY IN PERCENT
WIND   - DIRECTION AND SPEED IN MILES PER HOUR (MPH)
VRB    - VARIABLE WIND DIRECTION
PRES   - MEAN SEA LEVEL PRESSURE IN INCHES OF MERCURY
         F - FALLING PRESSURE   R - RISING PRESSURE
         S - STEADY PRESSURE
VSB    - VISIBILITY IN MILES
HX     - HEAT INDEX IN FAHRENHEIT
WCI    - WIND CHILL INDEX IN FAHRENHEIT
TC     - TEMPERATURE IN CELSIUS WHICH IS ALSO KNOWN AS
         TEMPERATURE IN CENTIGRADE
AFB    - AIR FORCE BASE
         LUKE AFB IS LUKE AIR FORCE BASE
         DAVIS-MONTHAN IS DAVIS-MONTHAN AIR FORCE BASE
NAS    - NAVAL AIR STATION
         EL CENTRO NAS IS EL CENTRO NAVAL AIR STATION
N/A    - NOT AVAILABLE



USA.gov is the U.S. government's official web portal to all federal, state and local government web resources and services.